| time (UTC) | temp F | wind direction | speed MPH | gust MPH | rain 1hr in | rain 24hr in | rain mn in | humidity % | barometer mb |
| 20260505070026 | 40 | 104 | 0.0 | 3.0 | 0.02 | 0.06 | 0.02 | 92 | 1007.6 |
| 20260505064528 | 40 | 101 | 1.0 | 3.0 | 0.02 | 0.05 | 0.01 | 92 | 1007.4 |
| 20260505063024 | 41 | 139 | 2.0 | 5.0 | 0.02 | 0.05 | 0.01 | 92 | 1007.3 |
| 20260505061519 | 41 | 76 | 0.0 | 7.0 | 0.02 | 0.05 | 0.01 | 91 | 1007.7 |
| 20260505060019 | 41 | 105 | 3.0 | 5.0 | 0.01 | 0.04 | 0.04 | 90 | 1007.8 |
| 20260505054517 | 41 | 33 | 0.0 | 4.0 | 0.00 | 0.03 | 0.03 | 89 | 1008.0 |
| 20260505053019 | 41 | 49 | 0.0 | 3.0 | 0.00 | 0.03 | 0.03 | 87 | 1007.8 |
| 20260505051515 | 41 | 77 | 0.0 | 2.0 | 0.00 | 0.03 | 0.03 | 86 | 1007.7 |
| 20260505041513 | 41 | 71 | 4.0 | 8.0 | 0.00 | 0.03 | 0.03 | 85 | 1006.8 |
| 20260505040012 | 41 | 67 | 3.0 | 10.0 | 0.00 | 0.03 | 0.03 | 87 | 1006.7 |
| 20260505034512 | 42 | 98 | 2.0 | 9.0 | 0.00 | 0.03 | 0.03 | 86 | 1006.9 |
| 20260505033011 | 42 | 90 | 6.0 | 11.0 | 0.00 | 0.03 | 0.03 | 85 | 1006.7 |
| 20260505031512 | 42 | 87 | 5.0 | 9.0 | 0.00 | 0.03 | 0.03 | 83 | 1006.9 |
| 20260505030009 | 42 | 57 | 2.0 | 7.0 | 0.00 | 0.03 | 0.03 | 84 | 1006.9 |
| 20260505024509 | 42 | 30 | 2.0 | 7.0 | 0.01 | 0.03 | 0.03 | 84 | 1006.5 |
| 20260505023008 | 42 | 59 | 1.0 | 6.0 | 0.03 | 0.03 | 0.03 | 83 | 1006.1 |
| 20260505021512 | 42 | 92 | 3.0 | 10.0 | 0.03 | 0.03 | 0.03 | 82 | 1006.3 |
| 20260505020014 | 43 | 102 | 3.0 | 10.0 | 0.03 | 0.03 | 0.03 | 79 | 1006.5 |
| 20260505014504 | 45 | 66 | 4.0 | 13.0 | 0.02 | 0.02 | 0.02 | 74 | 1006.1 |
| 20260505013003 | 48 | 95 | 14.0 | 23.0 | 0.00 | 0.00 | 0.00 | 62 | 1006.4 |
| 20260505011502 | 50 | 28 | 3.0 | 9.0 | 0.00 | 0.00 | 0.00 | 52 | 1005.7 |
| 20260505010001 | 51 | 77 | 5.0 | 11.0 | 0.00 | 0.00 | 0.00 | 49 | 1004.8 |
| 20260505004504 | 52 | 109 | 8.0 | 16.0 | 0.00 | 0.00 | 0.00 | 47 | 1004.4 |
| 20260505003000 | 52 | 128 | 7.0 | 11.0 | 0.00 | 0.00 | 0.00 | 46 | 1004.3 |
| 20260505001600 | 54 | 105 | 4.0 | 11.0 | 0.00 | 0.00 | 0.00 | 43 | 1004.2 |
| 20260505000059 | 54 | 106 | 9.0 | 16.0 | 0.00 | 0.00 | 0.00 | 41 | 1004.2 |
| 20260504234559 | 54 | 101 | 4.0 | 14.0 | 0.00 | 0.00 | 0.00 | 44 | 1004.2 |
| 20260504233059 | 55 | 94 | 10.0 | 19.0 | 0.00 | 0.00 | 0.00 | 41 | 1004.3 |
| 20260504231559 | 56 | 140 | 2.0 | 11.0 | 0.00 | 0.00 | 0.00 | 39 | 1004.1 |
| 20260504230058 | 57 | 61 | 2.0 | 12.0 | 0.00 | 0.00 | 0.00 | 36 | 1003.9 |
| 20260504224558 | 57 | 284 | 0.0 | 5.0 | 0.00 | 0.00 | 0.00 | 34 | 1003.8 |
| 20260504223057 | 57 | 257 | 3.0 | 7.0 | 0.00 | 0.00 | 0.00 | 36 | 1003.8 |
| 20260504221556 | 56 | 248 | 3.0 | 7.0 | 0.00 | 0.00 | 0.00 | 36 | 1003.7 |
| 20260504220056 | 56 | 234 | 9.0 | 27.0 | 0.00 | 0.00 | 0.00 | 40 | 1003.9 |
| 20260504214604 | 59 | 265 | 6.0 | 8.0 | 0.00 | 0.00 | 0.00 | 31 | 1003.8 |
| 20260504213056 | 60 | 101 | 6.0 | 11.0 | 0.00 | 0.00 | 0.00 | 29 | 1003.5 |
| 20260504211554 | 61 | 109 | 6.0 | 13.0 | 0.00 | 0.00 | 0.00 | 25 | 1003.5 |
| 20260504204608 | 64 | 236 | 6.0 | 12.0 | 0.00 | 0.00 | 0.00 | 23 | 1003.4 |
| 20260504203106 | 63 | 59 | 4.0 | 15.0 | 0.00 | 0.00 | 0.00 | 24 | 1003.6 |
| 20260504201546 | 61 | 150 | 2.0 | 7.0 | 0.00 | 0.00 | 0.00 | 25 | 1003.8 |
| 20260504200047 | 61 | 96 | 3.0 | 5.0 | 0.00 | 0.00 | 0.00 | 25 | 1003.8 |
| 20260504194544 | 60 | 184 | 5.0 | 9.0 | 0.00 | 0.00 | 0.00 | 28 | 1003.9 |
| 20260504193044 | 61 | 163 | 6.0 | 10.0 | 0.00 | 0.00 | 0.00 | 25 | 1003.8 |
| 20260504191541 | 62 | 135 | 3.0 | 7.0 | 0.00 | 0.00 | 0.00 | 26 | 1004.0 |
| 20260504190039 | 61 | 101 | 2.0 | 10.0 | 0.00 | 0.00 | 0.00 | 29 | 1004.2 |
| 20260504184537 | 59 | 114 | 5.0 | 14.0 | 0.00 | 0.00 | 0.00 | 26 | 1004.6 |
| 20260504183036 | 60 | 76 | 4.0 | 8.0 | 0.00 | 0.00 | 0.00 | 26 | 1005.1 |
| 20260504181534 | 61 | 298 | 0.0 | 6.0 | 0.00 | 0.00 | 0.00 | 25 | 1005.0 |
| 20260504180031 | 62 | 360 | 2.0 | 7.0 | 0.00 | 0.00 | 0.00 | 26 | 1005.2 |
| 20260504174528 | 62 | 70 | 3.0 | 9.0 | 0.00 | 0.00 | 0.00 | 27 | 1005.6 |
| 20260504173024 | 61 | 339 | 5.0 | 11.0 | 0.00 | 0.00 | 0.00 | 28 | 1006.0 |
| 20260504171521 | 60 | 24 | 7.0 | 12.0 | 0.00 | 0.00 | 0.00 | 32 | 1006.2 |
| 20260504081508 | 38 | 24 | 0.0 | 0.0 | 0.00 | 0.00 | 0.00 | 61 | 1007.5 |